Tracking 28790 objects as of 19-Apr-2024
HD Live streaming from Space Station
objects crossing your sky now

SL-16 DEB

Track SL-16 DEB now!
10-day predictions


NORAD ID: 22329
Int'l Code: 1992-093S
Perigee: 569.5 km
Apogee: 644.7 km
Inclination: 70.9 °
Period: 96.7 minutes
Semi major axis: 6978 km
RCS: 0.0951 m2 (small)
Launch date: December 25, 1992
Source: Commonwealth of Independent States (former USSR) (CIS)
Launch site: TYURATAM MISSILE AND SPACE COMPLEX (TTMTR)

Note: This is SATELLITE DEBRIS
Your satellite tracking list
Your tracking list is empty




NASA's NSSDC Master Catalog

Two Line Element Set (TLE):
1 22329U 92093S   24109.84772504  .00031756  00000-0  32464-2 0  9997
2 22329  70.8927 296.4447 0053886 106.4337 254.2756 14.89343051643870
Source of the keplerian elements: AFSPC